Weather History for Ostend, Belgium

Change the Weather History Date:

Friday, April 19, 2013

  Actual Average Record
Temperature  
Mean Temperature 46 °F -  
Max Temperature 51 °F 57 °F 75 °F (2011)
Min Temperature 41 °F 44 °F 32 °F (1998)
Degree Days  
Heating Degree Days 19    
Moisture  
Dew Point 40 °F    
Average Humidity 80    
Maximum Humidity 87    
Minimum Humidity 69    
Precipitation  
Precipitation 0.00 in - - ()
Sea Level Pressure  
Sea Level Pressure 30.27 in    
Wind  
Wind Speed 13 mph ()    
Max Wind Speed 17 mph    
Max Gust Speed -    
Visibility 7.4 miles    
Events Rain    
Averages and records for this station are not official NWS values.
T = Trace of Precipitation, MM = Missing Value Source: Averaged Metar Reports

Daily Weather History Graph

Daily Weather History Graph

Search for Another Location

Airport:

Trip Planner

Search our weather history database for the weather conditions in past years. The results will help you decide how hot, cold, wet, or windy it might be!

Date:

Astronomy

Apr. 19, 2013 Rise Set
Actual Time 6:44 AM CEST 8:51 PM CEST
Civil Twilight 6:09 AM CEST 9:27 PM CEST
Nautical Twilight 5:24 AM CEST 10:12 PM CEST
Astronomical Twilight 4:33 AM CEST 11:03 PM CEST
Moon 1:38 PM CEST (4/19) 3:35 AM CEST (4/19)
Length of Visible Light 15h 18m
Length of Day
14h 06m
First Quarter, 59% of the Moon is Illuminated
Apr 19
First Quarter
Apr 25
Full
May 2
Last Quarter
May 10
New
May 18
First Quarter

Hourly Weather History & Observations

Time (CEST) Temp. Windchill Dew Point Humidity Pressure Visibility Wind Dir Wind Speed Gust Speed Precip Events Conditions
12:20 AM 44.6 °F 37.2 °F 41.0 °F 87% 30.09 in - SW 17.3 mph - N/A   Clear
12:50 AM 44.6 °F 37.4 °F 39.2 °F 81% 30.12 in - SW 16.1 mph - N/A   Clear
1:20 AM 44.6 °F 38.1 °F 39.2 °F 81% 30.12 in - SW 13.8 mph - N/A   Clear
1:50 AM 42.8 °F 36.2 °F 39.2 °F 87% 30.12 in - SW 12.7 mph - N/A   Clear
2:00 AM 43 °F - 39 °F 81% 30.14 in 15 mi SW 11.2 mph - -   Scattered Clouds
2:20 AM 42.8 °F 36.6 °F 39.2 °F 87% 30.12 in - SW 11.5 mph - N/A   Clear
2:50 AM 42.8 °F 36.2 °F 37.4 °F 81% 30.12 in - SW 12.7 mph - N/A   Clear
3:20 AM 42.8 °F 36.2 °F 37.4 °F 81% 30.12 in - SW 12.7 mph - N/A   Clear
3:50 AM 42.8 °F 36.6 °F 37.4 °F 81% 30.12 in - SW 11.5 mph - N/A   Clear
4:20 AM 42.8 °F 35.8 °F 37.4 °F 81% 30.12 in - WSW 13.8 mph - N/A   Clear
4:50 AM 42.8 °F 35.8 °F 37.4 °F 81% 30.12 in - WSW 13.8 mph - N/A   Clear
5:00 AM 43 °F - 37 °F 74% 30.15 in 15 mi WSW 13.4 mph - -   Scattered Clouds
5:20 AM 42.8 °F 36.2 °F 37.4 °F 81% 30.12 in - WSW 12.7 mph - N/A   Clear
5:50 AM 42.8 °F 35.4 °F 37.4 °F 81% 30.12 in - WSW 15.0 mph - N/A   Clear
6:20 AM 44.6 °F 37.2 °F 39.2 °F 81% 30.12 in - WSW 17.3 mph - N/A   Clear
6:50 AM 44.6 °F 37.8 °F 39.2 °F 81% 30.15 in - WSW 15.0 mph - N/A   Clear
7:20 AM 44.6 °F 37.8 °F 39.2 °F 81% 30.15 in - WSW 15.0 mph - N/A   Clear
7:50 AM 44.6 °F 37.4 °F 41.0 °F 87% 30.15 in 6.2 mi WSW 16.1 mph - N/A   Scattered Clouds
8:00 AM 45 °F - 40 °F 78% 30.18 in 12 mi WSW 15.7 mph - -   Partly Cloudy
8:20 AM 46.4 °F 39.5 °F 41.0 °F 81% 30.18 in 6.2 mi WSW 17.3 mph - N/A   Mostly Cloudy
8:50 AM 46.4 °F 39.8 °F 41.0 °F 81% 30.18 in 6.2 mi WSW 16.1 mph - N/A   Mostly Cloudy
9:20 AM 46.4 °F 40.4 °F 41.0 °F 81% 30.21 in 6.2 mi WSW 13.8 mph - N/A   Mostly Cloudy
9:50 AM 46.4 °F 40.4 °F 41.0 °F 81% 30.21 in 6.2 mi WSW 13.8 mph - N/A Rain Light Rain
10:20 AM 46.4 °F 39.8 °F 42.8 °F 87% 30.21 in 6.2 mi West 16.1 mph - N/A   Mostly Cloudy
10:50 AM 48.2 °F - 42.8 °F 82% 30.24 in 6.2 mi West 15.0 mph - N/A   Scattered Clouds
11:00 AM 48 °F - 43 °F 76% 30.25 in 9 mi West 15.7 mph - - Rain Light Rain
11:20 AM 48.2 °F - 42.8 °F 82% 30.24 in 6.2 mi West 15.0 mph - N/A   Scattered Clouds
11:50 AM 48.2 °F - 42.8 °F 82% 30.24 in 6.2 mi West 15.0 mph - N/A   Scattered Clouds
12:20 PM 48.2 °F - 41.0 °F 76% 30.27 in 6.2 mi West 15.0 mph - N/A   Scattered Clouds
12:50 PM 50.0 °F - 42.8 °F 76% 30.27 in 6.2 mi WNW 15.0 mph - N/A   Scattered Clouds
1:20 PM 50.0 °F - 42.8 °F 76% 30.27 in 6.2 mi WNW 12.7 mph - N/A   Partly Cloudy
1:50 PM 50.0 °F - 42.8 °F 76% 30.30 in 6.2 mi NW 13.8 mph - N/A   Partly Cloudy
2:00 PM 49 °F - 42 °F 69% 30.30 in 12 mi NW 13.4 mph - -   Partly Cloudy
2:20 PM 48.2 °F - 41.0 °F 76% 30.30 in 6.2 mi WNW 11.5 mph - N/A   Partly Cloudy
2:50 PM 48.2 °F - 42.8 °F 82% 30.30 in 6.2 mi NW 13.8 mph - N/A   Partly Cloudy
3:20 PM 46.4 °F 40.7 °F 41.0 °F 81% 30.30 in 6.2 mi NNW 12.7 mph - N/A   Partly Cloudy
3:50 PM 48.2 °F - 41.0 °F 76% 30.33 in 6.2 mi North 12.7 mph - N/A   Partly Cloudy
4:20 PM 48.2 °F - 41.0 °F 76% 30.33 in 6.2 mi North 13.8 mph - N/A   Partly Cloudy
4:50 PM 48.2 °F - 41.0 °F 76% 30.36 in 6.2 mi North 12.7 mph - N/A   Partly Cloudy
5:00 PM 48 °F - 41 °F 69% 30.36 in 12 mi North 13.4 mph - -   Scattered Clouds
5:20 PM 48.2 °F - 41.0 °F 76% 30.36 in 6.2 mi North 13.8 mph - N/A   Partly Cloudy
5:50 PM 46.4 °F 40.4 °F 39.2 °F 76% 30.36 in 6.2 mi North 13.8 mph - N/A   Partly Cloudy
6:20 PM 46.4 °F 39.8 °F 39.2 °F 76% 30.39 in 6.2 mi North 16.1 mph - N/A   Partly Cloudy
6:50 PM 44.6 °F 37.8 °F 39.2 °F 81% 30.39 in 6.2 mi North 15.0 mph - N/A   Mostly Cloudy
7:20 PM 44.6 °F 37.2 °F 39.2 °F 81% 30.39 in 6.2 mi North 17.3 mph - N/A   Scattered Clouds
7:50 PM 42.8 °F 35.4 °F 39.2 °F 87% 30.42 in 6.2 mi North 15.0 mph - N/A   Partly Cloudy
8:00 PM 44 °F - 39 °F 76% 30.42 in 12 mi North 15.7 mph - -   Scattered Clouds
8:20 PM 42.8 °F 35.1 °F 39.2 °F 87% 30.42 in 6.2 mi North 16.1 mph - N/A   Scattered Clouds
8:50 PM 42.8 °F 35.4 °F 39.2 °F 87% 30.42 in 6.2 mi North 15.0 mph - N/A   Scattered Clouds
9:20 PM 42.8 °F 35.4 °F 39.2 °F 87% 30.45 in 6.2 mi North 15.0 mph - N/A   Mostly Cloudy
9:50 PM 42.8 °F 36.6 °F 37.4 °F 81% 30.45 in 6.2 mi North 11.5 mph - N/A   Mostly Cloudy
10:20 PM 42.8 °F 35.8 °F 37.4 °F 81% 30.45 in 6.2 mi North 13.8 mph - N/A   Mostly Cloudy
10:50 PM 42.8 °F 36.2 °F 37.4 °F 81% 30.45 in 6.2 mi North 12.7 mph - N/A   Mostly Cloudy
11:00 PM 42 °F - 38 °F 80% 30.47 in 12 mi North 13.4 mph - -   Mostly Cloudy
11:20 PM 41.0 °F 34.3 °F 37.4 °F 87% 30.48 in 6.2 mi North 11.5 mph - N/A   Mostly Cloudy
11:50 PM 41.0 °F 34.3 °F 37.4 °F 87% 30.48 in 6.2 mi NNE 11.5 mph - N/A   Mostly Cloudy